Location: Oberwangen
(47.4286°N, 8.9679°E)
Time: 11:05:29
(UTC+00:00)

Cosmos 1816 Rocket - Pass Details

Date: 22 October 2021
Orbit: 952 x 998 km, 82.9° (Epoch: 08 December)

Event Time Altitude Azimuth Distance (km) Brightness Sun altitude
Rises 17:29:15 0° 4° (N) 3,647 7.4 -11.8°
Reaches altitude 10° 17:33:39 10° 34° (NNE) 2,702 6.5 -12.5°
Enters shadow 17:36:02 12° 57° (ENE) 2,536 6.2 -12.9°
